Location: Monfort
(47.1967°N, 0.2115°W)
Time: 11:49:24
(UTC+00:00)

Helios 1A Rocket - Pass Details

Date: 24 October 2020
Orbit: 562 x 587 km, 98.3° (Epoch: 27 November)

Event Time Altitude Azimuth Distance (km) Brightness Sun altitude
Rises 18:31:50 0° 172° (S) 2,799 6.3 -16.8°
Reaches altitude 10° 18:34:00 10° 175° (S) 1,901 5.5 -17.2°
Maximum altitude 18:38:05 64° 258° (WSW) 649 3.4 -17.8°
Drops below altitude 10° 18:42:11 10° 340° (NNW) 1,905 5.8 -18.5°
Sets 18:44:22 0° 344° (NNW) 2,805 6.7 -18.9°
